Dewpoint
72 71 71 70 71 74 72 67 56 58 56 52 53 55 53 58 59 54 53 56 52 58 58 56 56 57 59 58 60 61 61 53 54 47 47 61 69 70 71 73 74 74 74 74 75 75 75 76 76 76 76 76 76 76 76 76 75 75 76 76 77 77 77 77 76 76 76 76 75 76 76 76 75 76 76 76 76 75 75 75 75 75 75 74 74 74 74 75 75 75 75 75 75 75 75 75 75
70 69 69 70 70 72 65 67 58 56 56 52 52 57 54 58 55 51 51 56 54 52 56 58 60 61 61 61 61 59 61 62 63 64 66 68 70 70 72 73 73 73 74 74 75 75 75 76 76 76 76 76 76 76 76 75 76 76 76 76 76 76 77 76 76 75 75 75 75 75 76 75 75 76 76 76 75 76 75 75 75 74 75 74 74 74 74 74 75 74 74 75 75 75 75 75 76
65 65 66 70 74 71 69 67 55 54 50 49 51 56 57 52 51 53 58 53 53 57 57 58 58 60 58 58 58 59 59 64 66 66 67 69 68 70 72 73 73 73 74 75 75 75 75 76 76 76 76 76 76 75 75 75 75 75 76 76 76 75 75 75 75 75 75 75 75 75 75 75 76 76 76 75 75 75 75 75 75 75 74 75 74 74 74 75 75 75 75 75 75 76 75 76 76
66 75 74 72 67 70 62 61 57 54 51 52 51 55 56 52 53 57 60 53 54 55 56 56 59 60 60 59 60 61 61 63 66 67 67 68 68 71 72 73 74 73 74 74 74 74 75 76 76 76 76 76 76 75 75 75 75 75 76 76 76 75 75 75 75 75 75 75 75 76 75 76 76 76 75 75 75 74 75 75 75 74 74 75 75 75 74 75 76 75 75 75 75 76 75 76 76
66 76 75 72 67 62 62 59 57 57 51 53 51 56 59 56 56 58 57 55 55 56 56 57 56 59 61 59 59 59 61 64 65 67 67 68 69 71 72 72 72 73 73 73 74 74 75 76 76 76 76 76 76 75 75 75 75 75 76 76 76 76 75 75 75 75 75 75 75 75 75 75 75 75 75 75 75 75 75 74 74 74 74 74 74 75 75 76 75 75 75 75 75 75 75 75 75
68 74 74 73 65 68 64 57 56 56 58 59 55 56 58 55 56 57 54 54 54 53 54 56 55 55 56 59 61 61 63 62 65 66 67 67 69 71 71 72 71 71 72 73 74 75 75 77 76 76 76 76 76 75 75 75 75 75 75 75 75 75 75 75 75 75 75 75 75 75 75 75 75 75 75 75 74 75 75 75 74 74 74 74 75 75 75 75 75 75 75 75 75 75 76 75 75
68 70 70 68 67 68 59 57 56 58 60 61 58 57 57 57 57 55 52 52 56 56 57 57 58 58 58 60 61 62 63 64 64 65 67 68 70 70 70 70 70 71 72 74 75 75 75 76 76 76 76 76 76 75 75 75 75 75 74 74 74 75 75 75 75 75 75 75 75 75 74 75 75 75 75 75 75 75 75 74 74 74 75 74 75 75 75 75 75 75 75 75 75 76 75 75 76
76 67 66 62 60 62 58 58 59 60 60 62 62 61 60 58 59 57 53 53 52 53 54 56 58 58 58 61 60 63 64 64 65 67 68 69 69 69 70 69 70 71 73 74 75 75 77 76 75 75 75 75 75 75 75 74 75 75 75 75 75 75 75 75 75 76 75 75 75 75 75 74 75 75 75 75 75 75 74 74 74 75 76 74 74 75 74 75 75 75 75 75 76 76 76 75 75
73 69 69 62 58 60 58 58 59 62 63 62 61 64 65 64 60 58 55 53 53 55 56 57 57 57 58 60 61 63 64 65 66 69 68 69 68 68 69 70 70 71 73 74 75 75 75 75 75 75 75 76 75 75 75 75 75 75 75 75 75 75 74 74 74 75 75 75 75 75 75 75 75 75 75 75 75 74 75 75 75 76 76 74 74 74 75 74 75 75 75 76 76 76 75 75 75
69 67 61 61 60 55 57 58 58 60 63 65 63 63 64 63 61 57 54 53 54 54 55 57 59 59 61 60 61 63 64 66 66 67 67 68 67 67 69 70 71 72 73 74 74 75 75 76 76 76 76 75 75 75 75 75 75 75 74 75 75 74 74 74 74 75 75 75 75 75 75 74 75 74 75 75 75 75 75 75 75 75 74 74 74 74 74 74 75 75 75 75 76 76 76 75 75
62 66 67 59 56 56 56 57 60 62 62 63 62 66 65 63 63 60 57 57 58 56 58 59 59 60 60 61 62 64 65 65 65 65 66 66 68 69 70 72 73 73 73 74 74 75 75 75 76 75 75 75 75 74 74 75 75 75 75 75 74 74 74 74 74 75 75 75 75 75 75 75 75 75 75 75 75 75 75 74 74 74 75 75 74 74 74 75 75 75 75 75 75 75 75 74 74
62 61 63 57 57 56 57 57 59 60 63 62 59 64 65 64 60 56 56 56 57 57 58 59 58 60 60 61 63 64 65 65 65 66 66 67 69 70 71 72 72 73 74 74 75 74 75 75 75 75 75 75 74 75 74 74 75 75 75 75 75 74 74 74 74 75 75 75 75 75 75 75 75 75 75 75 75 74 75 75 75 75 75 74 74 74 74 75 75 75 75 75 74 74 74 73 73
64 63 60 58 58 59 58 58 59 60 61 61 60 64 66 62 62 63 57 57 57 56 59 61 60 60 59 60 63 64 64 65 65 66 66 67 69 69 70 71 72 73 74 74 74 74 75 74 75 74 74 74 74 75 75 75 75 75 75 75 74 74 75 74 75 75 75 75 74 74 75 75 75 75 75 75 75 75 75 74 75 75 75 75 75 74 74 74 74 75 75 74 74 74 73 74 74
65 64 61 56 61 60 58 57 59 58 57 63 65 66 67 64 64 63 64 56 58 58 59 60 60 60 59 61 63 63 63 64 64 64 66 67 68 69 70 71 72 73 73 74 74 74 74 74 74 74 74 74 73 74 74 75 74 75 75 74 74 75 75 74 74 75 75 75 74 74 75 75 75 75 75 75 75 75 74 75 75 75 75 75 75 74 74 75 75 74 74 74 74 74 74 74 74
64 68 63 59 58 59 61 57 58 58 57 64 66 65 63 63 65 65 63 57 59 59 59 60 60 59 58 59 60 61 63 64 64 66 67 68 69 70 70 71 72 73 73 73 73 73 73 73 73 73 74 73 73 73 73 73 74 74 74 74 74 74 75 74 74 74 74 74 75 74 74 75 75 76 76 75 75 75 75 75 75 75 75 75 74 74 75 75 75 75 75 74 74 74 74 73 74
70 65 62 58 57 58 59 60 61 59 59 65 67 66 62 65 66 65 65 67 58 59 58 58 59 60 59 59 60 62 63 63 65 66 68 68 69 70 70 71 71 72 73 73 73 73 73 73 73 72 73 73 73 73 74 74 74 74 73 74 74 75 74 75 74 74 74 75 75 75 75 74 74 75 76 75 75 75 76 75 75 76 75 75 74 75 76 75 75 75 75 75 74 75 75 75 75
68 65 58 57 56 58 59 60 60 56 63 64 67 67 62 61 65 65 68 67 63 56 59 58 56 59 59 60 61 62 63 64 66 66 67 68 69 69 70 70 71 71 72 73 73 73 73 72 72 73 73 74 74 74 74 74 74 74 74 74 74 74 75 74 74 74 74 74 74 74 75 74 74 75 75 74 75 75 75 75 75 76 75 75 75 76 76 75 75 75 75 75 75 75 75 76 76
68 61 58 55 58 58 60 59 60 65 60 63 65 67 62 62 64 64 68 66 67 57 58 56 58 59 60 61 61 61 63 64 66 66 67 67 68 68 69 69 70 70 71 72 72 72 72 73 73 73 73 73 74 74 74 74 74 73 73 73 74 73 74 74 74 74 74 74 74 74 73 75 74 74 74 75 75 75 74 75 75 75 75 75 75 75 75 75 75 75 76 75 76 75 76 75 76
63 61 59 55 59 59 62 60 60 63 61 65 65 67 63 63 63 64 62 62 60 56 55 56 57 59 60 60 59 62 63 64 65 66 66 67 67 68 68 68 69 70 70 71 71 72 72 73 73 73 73 73 73 73 74 74 73 73 73 73 74 74 74 74 73 74 73 74 73 73 74 74 74 74 74 75 76 75 75 75 75 75 75 75 75 76 76 76 76 76 76 76 76 76 77 75 75
65 60 57 58 60 61 64 63 63 65 66 64 64 66 62 63 65 66 63 58 58 53 53 56 57 58 59 59 59 62 64 65 65 66 66 67 67 67 67 68 68 69 70 70 71 73 73 73 73 73 73 73 73 73 73 73 73 73 73 73 73 73 73 73 73 73 73 74 74 74 74 74 74 74 75 75 76 74 74 75 75 75 75 75 76 76 76 75 75 76 76 76 78 78 76 75 75
64 61 58 58 59 61 63 65 64 66 66 65 65 66 61 64 65 64 64 58 56 54 56 56 57 58 59 59 58 61 63 64 65 66 66 66 67 67 67 67 68 69 70 71 72 72 72 73 74 74 74 73 73 73 73 73 73 73 73 73 73 73 73 73 73 73 73 74 74 74 74 74 74 74 74 74 73 74 74 74 74 74 74 74 76 73 73 74 75 74 74 76 75 76 75 75 75
61 59 60 60 62 62 67 66 66 66 66 65 66 62 60 64 65 66 63 56 54 56 56 57 57 58 58 58 58 59 61 62 63 64 65 66 66 66 67 67 68 69 71 70 71 71 72 73 73 74 74 73 73 73 73 73 73 72 72 73 72 72 72 72 72 73 73 73 73 74 74 73 74 74 73 73 73 74 73 73 73 73 73 74 77 73 74 74 73 73 74 74 74 74 74 74 74
58 60 60 60 62 64 67 66 66 65 66 65 64 65 66 65 65 65 65 60 58 59 57 57 57 58 58 58 57 57 58 59 61 63 65 65 66 66 67 68 69 69 70 70 71 71 72 72 73 73 73 73 73 74 74 73 72 72 73 73 71 71 71 71 72 72 73 73 73 74 73 73 73 73 73 73 73 73 73 73 73 73 73 73 74 74 74 73 73 73 74 74 74 74 74 74 74
59 59 64 64 65 65 66 67 67 66 66 65 68 69 64 64 60 65 63 65 59 58 57 57 58 58 58 57 57 57 57 57 58 62 64 64 66 67 67 68 69 70 70 70 70 71 72 72 73 73 73 73 73 73 73 73 73 73 73 73 72 73 72 72 72 72 73 73 73 74 74 73 73 73 73 73 73 73 73 73 73 73 74 74 74 74 73 73 73 73 74 74 74 74 73 73 73
60 62 64 65 65 65 65 66 66 67 67 66 66 64 63 65 63 63 60 61 58 58 57 57 57 58 57 57 57 57 57 57 58 60 63 64 65 67 67 68 69 69 69 70 70 70 71 72 72 72 73 73 73 73 73 73 73 73 74 73 72 74 72 72 72 73 73 73 73 74 74 73 73 73 73 73 73 73 73 73 73 73 73 73 73 73 73 72 72 73 73 73 73 72 72 71 71
60 62 63 65 64 64 65 66 66 66 65 66 62 63 63 64 67 60 62 60 59 58 58 57 57 57 57 57 57 57 57 57 58 58 62 64 66 66 67 68 69 69 69 70 70 70 71 72 72 72 72 73 72 72 72 72 72 73 73 73 73 74 72 72 73 73 73 72 73 73 74 73 73 73 73 73 73 73 73 73 73 73 72 72 72 71 72 72 71 72 73 72 71 71 70 68 71
63 63 64 65 65 65 66 65 65 66 65 66 63 63 63 66 65 55 64 64 57 57 56 56 57 57 57 57 57 57 57 57 57 59 63 65 66 66 67 67 68 69 70 70 70 71 73 72 71 72 73 74 72 72 72 72 73 73 74 73 74 72 72 73 73 73 72 72 72 73 73 74 72 72 73 73 73 73 73 73 73 74 73 72 72 72 73 74 73 72 71 71 72 72 72 71 71
64 64 63 64 64 64 65 65 64 65 64 66 65 63 66 67 64 56 61 65 57 56 56 56 56 56 56 56 56 56 56 57 57 61 62 64 65 66 66 66 67 68 69 70 71 72 72 70 71 72 73 73 72 72 74 73 72 72 73 73 74 73 73 72 72 72 73 72 73 73 73 73 74 72 73 73 73 73 73 73 72 72 72 73 73 73 72 72 74 74 73 73 74 73 72 71 71
63 62 61 63 63 62 64 63 63 64 64 66 65 63 60 64 58 61 63 62 57 57 56 56 56 56 56 56 56 56 56 56 58 61 62 64 65 66 66 66 67 68 69 70 70 71 71 70 70 71 71 72 71 72 72 72 72 72 72 72 73 73 72 72 72 72 72 72 73 73 73 74 74 73 73 73 75 72 72 72 71 73 72 73 74 73 74 75 74 73 73 74 74 74 72 71 72
61 61 61 60 60 59 63 63 64 63 64 67 65 55 57 61 64 62 65 62 58 57 55 55 56 55 55 55 55 54 55 55 58 60 62 63 65 66 65 66 67 68 69 69 70 70 70 71 71 71 70 71 71 71 72 71 72 72 73 72 75 73 72 72 72 71 72 73 73 73 73 74 75 73 73 73 73 72 71 71 71 72 73 74 76 76 74 74 74 72 73 72 75 75 73 73 72
59 60 59 57 56 55 62 62 63 62 65 65 66 55 55 59 63 67 68 65 56 54 54 54 54 54 54 54 53 53 53 54 57 59 61 63 64 65 65 66 67 68 69 68 69 69 71 70 70 70 71 70 72 71 71 71 71 72 72 72 73 72 72 71 71 71 72 73 73 73 74 76 75 73 73 73 73 72 71 71 72 72 74 76 75 75 75 75 73 73 75 73 73 72 73 74 73
59 55 54 56 54 56 62 63 63 61 63 64 63 56 57 59 63 67 68 60 56 52 52 53 53 52 52 52 52 52 52 53 55 58 60 62 63 64 64 65 67 68 68 68 69 69 69 70 70 68 70 69 70 71 70 71 71 71 72 74 72 72 71 70 71 71 72 73 74 74 75 76 76 76 75 73 72 73 71 71 73 75 76 76 76 75 75 75 74 74 74 74 72 72 74 72 73
58 53 54 54 56 58 59 62 63 64 64 65 63 56 57 58 62 64 68 58 56 52 52 52 52 52 51 52 52 52 52 52 53 56 58 60 63 64 64 65 67 68 68 68 69 69 69 69 70 68 69 69 69 70 70 71 71 70 71 73 70 70 69 70 71 72 73 73 74 74 76 77 76 76 77 76 74 74 73 74 74 76 77 76 75 75 73 76 74 73 73 74 75 73 73 73 72
55 49 54 56 55 57 55 61 64 64 64 62 63 57 57 62 65 65 67 66 56 52 52 52 51 51 51 52 52 52 51 51 51 53 56 61 63 64 64 67 67 68 68 68 68 68 68 69 69 69 68 69 69 70 70 71 70 70 71 73 73 69 68 69 70 72 73 74 74 75 76 77 77 77 76 76 75 75 74 74 75 76 76 75 75 75 74 74 74 73 72 73 76 74 73 72 72
52 53 54 55 56 56 57 56 60 62 62 62 62 60 59 62 65 64 66 67 60 52 52 51 51 51 51 51 52 52 51 51 51 52 58 61 62 63 64 66 66 67 68 68 68 68 68 68 69 70 68 69 69 70 71 70 70 71 71 70 69 69 70 70 70 71 73 74 75 76 76 77 77 76 76 76 74 75 75 74 75 75 76 76 76 75 74 74 75 74 73 74 74 73 73 73 73
50 53 53 54 53 54 56 58 62 61 60 60 61 59 60 63 63 63 63 66 60 60 58 53 51 51 51 51 51 52 52 50 50 54 60 61 62 63 64 65 66 66 67 67 68 67 68 69 69 69 69 69 70 70 71 70 71 70 69 70 69 71 70 72 71 72 73 74 76 76 76 76 77 76 75 76 77 74 74 75 74 76 76 76 75 74 73 73 73 73 74 75 73 72 73 72 71
51 53 53 54 54 56 60 60 62 63 60 59 59 60 62 62 63 63 64 66 64 61 56 55 52 51 52 52 51 52 52 51 51 56 60 61 61 63 64 64 65 66 66 66 66 67 68 69 70 69 70 70 70 69 70 69 69 68 68 68 68 69 70 70 71 72 73 74 75 76 76 77 76 76 76 76 76 79 77 76 76 76 76 77 76 75 74 74 74 75 75 74 74 72 72 72 68
44 52 53 54 53 53 59 60 62 63 59 58 60 60 59 61 62 63 63 66 62 62 61 57 52 51 53 52 52 53 53 53 52 57 60 60 61 63 63 63 65 64 65 65 66 67 68 69 69 69 70 70 70 69 69 69 69 68 67 67 68 70 71 71 72 73 73 74 75 76 76 76 76 76 77 78 77 76 76 76 74 76 76 76 77 77 76 78 76 75 73 71 73 74 71 71 68
49 51 53 53 55 59 59 60 61 61 60 57 58 57 58 59 60 63 63 63 66 64 63 64 65 62 54 53 52 53 53 53 53 58 59 59 61 62 63 63 63 64 65 65 66 67 68 69 70 70 70 70 69 70 69 68 70 70 69 69 68 69 71 71 72 73 74 74 75 75 76 76 76 76 77 78 76 75 76 76 76 76 76 77 75 73 76 74 74 75 74 71 72 72 73 72 70
51 52 51 52 57 54 54 59 60 61 60 57 59 58 58 60 61 61 64 63 64 65 66 66 66 65 61 53 53 53 52 53 55 58 58 60 62 62 62 63 64 65 66 66 66 67 68 70 69 70 70 70 70 71 71 70 70 71 70 69 69 70 69 73 72 74 74 74 74 76 75 75 76 76 77 78 75 75 75 73 75 77 77 77 74 73 74 73 73 74 73 74 74 70 70 70 72
51 51 51 55 56 54 55 57 58 60 61 60 59 56 56 59 59 60 63 64 65 64 65 66 65 66 67 66 55 53 53 53 55 57 58 60 61 62 63 63 64 65 65 66 66 67 68 69 69 70 70 70 70 75 73 73 73 71 72 72 72 72 71 71 71 72 73 74 75 75 75 75 76 76 76 76 75 74 75 75 75 75 77 76 76 76 75 74 74 74 74 73 72 71 70 71 71
49 50 52 56 56 54 57 58 56 55 53 58 56 50 50 56 59 60 61 62 62 64 64 64 63 64 65 64 57 54 56 53 54 57 59 60 61 62 63 63 64 65 65 66 66 67 68 69 69 70 70 70 73 74 73 72 72 70 70 69 68 68 69 69 70 70 71 73 74 74 75 75 75 75 75 75 75 74 75 75 75 75 75 76 77 75 75 74 73 72 73 72 72 73 71 69 67
46 45 51 55 54 57 57 56 54 50 49 53 58 49 47 56 57 59 61 61 60 63 63 64 64 64 64 64 62 56 55 54 53 58 59 60 61 62 63 63 63 65 65 66 66 68 69 69 69 70 70 72 73 73 73 72 71 70 69 69 69 69 68 69 70 71 72 73 74 73 73 74 75 74 75 75 75 75 75 75 75 75 76 76 77 75 74 73 73 74 76 74 73 75 72 69 69
19 40 51 54 57 56 56 55 52 51 56 57 57 57 49 49 54 59 60 60 60 60 61 63 64 63 63 63 65 60 55 54 52 57 59 60 61 63 63 63 63 64 65 66 66 68 69 69 69 70 71 74 73 73 72 72 70 70 69 70 71 70 69 70 71 71 72 73 73 73 73 73 74 74 75 75 76 76 76 75 75 76 75 75 77 75 74 74 74 74 77 76 75 75 73 72 70
38 48 53 56 56 56 55 54 51 53 52 50 54 55 50 49 55 59 60 58 59 60 60 62 64 63 63 63 64 63 56 54 53 56 59 59 61 63 63 63 64 65 65 66 66 69 69 69 69 71 72 74 74 74 72 72 72 71 71 72 72 72 71 72 73 74 72 73 72 73 72 73 74 74 74 75 75 76 77 75 75 75 76 75 79 75 75 76 74 74 74 74 73 73 74 74 71
43 48 51 56 57 57 55 52 51 51 49 48 52 53 47 47 56 57 59 58 58 59 61 62 64 63 63 64 64 65 59 55 53 55 58 60 61 63 63 64 64 65 66 67 66 68 69 69 70 72 73 73 74 74 73 72 73 73 72 72 72 72 73 73 73 72 71 72 72 73 73 73 73 74 74 75 75 75 76 76 75 75 75 76 75 73 74 73 73 73 74 74 75 73 73 73 73
39 40 51 56 55 55 52 49 51 48 42 46 51 53 48 44 53 56 56 56 57 58 61 63 64 64 63 65 66 66 61 58 55 54 57 60 61 63 63 63 64 65 66 67 67 68 69 70 72 72 73 73 74 74 73 73 73 72 72 72 72 72 71 71 72 72 72 72 71 73 73 72 73 73 74 75 75 75 74 76 75 74 75 78 76 74 73 73 74 73 74 75 75 73 72 73 72
38 43 49 48 50 53 47 47 46 42 40 43 49 52 51 42 46 55 57 57 57 57 57 59 61 61 61 63 66 66 63 59 58 54 56 59 61 62 63 63 63 65 65 66 67 68 69 70 72 72 72 73 74 74 73 74 73 72 72 72 72 72 71 71 71 72 72 71 72 72 74 72 73 73 73 74 74 74 75 75 76 74 76 75 75 75 76 74 74 74 74 74 73 74 73 73 72
42 46 46 43 44 45 41 45 41 40 37 39 49 52 49 46 46 52 56 56 57 58 57 57 59 60 61 62 65 66 65 60 59 55 55 59 60 62 62 63 63 64 65 67 67 68 69 70 72 72 72 73 73 73 73 74 72 72 72 72 72 73 72 72 72 73 73 72 73 73 74 72 73 72 72 73 73 73 75 73 74 74 75 75 76 75 75 75 75 75 74 74 74 74 73 73 72
41 44 41 39 39 38 32 38 38 37 38 36 49 51 46 48 49 51 54 55 57 57 57 57 58 59 60 62 63 64 65 62 60 56 55 58 60 61 62 63 63 63 65 67 68 69 69 70 72 71 72 73 73 73 74 73 72 72 73 72 72 74 72 73 73 73 73 73 73 73 73 72 73 72 73 72 72 72 74 74 74 75 75 75 76 75 76 75 75 76 75 73 74 73 75 74 74
22 37 37 36 40 32 30 33 35 33 30 42 50 46 44 42 45 53 55 55 57 58 58 58 58 59 61 62 62 63 64 63 61 60 56 57 60 61 62 63 63 63 65 67 68 69 70 70 72 72 72 73 73 73 74 73 73 73 73 73 73 74 73 73 74 74 74 74 74 73 73 72 73 73 73 73 73 72 74 73 73 75 76 76 76 76 77 76 76 76 77 75 76 75 74 75 74
20 20 27 26 28 33 24 31 27 30 45 45 46 43 50 48 53 57 58 56 57 58 58 59 59 60 61 62 61 62 63 64 62 61 59 58 60 61 62 63 63 63 66 67 69 69 70 70 72 72 72 73 73 73 73 73 73 74 73 73 73 74 75 74 74 75 74 75 74 74 73 73 73 73 73 74 73 72 73 73 74 74 75 75 75 74 75 75 75 75 75 76 75 77 74 73 74
23 22 22 23 29 27 33 39 38 31 41 42 47 47 50 52 52 55 58 57 58 58 58 58 59 60 61 61 61 61 62 63 62 61 61 60 60 60 61 61 62 63 66 67 69 70 70 71 72 72 72 73 73 73 73 74 74 74 73 73 73 74 74 73 74 74 74 75 74 74 74 74 74 73 73 74 74 73 73 73 73 73 75 75 75 75 75 75 75 74 74 74 74 75 75 73 75
25 22 20 21 25 28 28 24 29 27 23 32 46 44 46 49 47 56 58 58 58 58 59 59 59 60 61 61 61 61 62 64 63 61 61 62 61 61 61 62 62 64 66 68 69 70 70 71 72 72 72 72 72 73 73 74 74 73 73 73 73 74 74 73 74 74 74 74 74 75 75 74 74 74 75 74 73 72 73 75 73 73 74 74 75 75 75 76 76 75 74 74 74 75 75 76 76
19 18 22 19 26 20 28 25 20 20 22 38 44 44 48 48 47 55 56 57 58 59 59 59 60 60 60 61 61 61 61 64 63 61 61 62 64 63 63 63 63 64 67 68 69 70 70 71 72 72 72 72 72 72 73 74 74 73 73 74 73 74 74 73 73 73 74 74 73 74 74 74 74 74 75 75 73 72 74 74 73 72 73 74 74 74 75 75 75 75 75 75 75 75 74 73 73
21 22 19 23 21 25 27 21 31 26 26 35 40 41 42 49 49 52 55 57 58 59 60 59 60 60 61 61 61 61 62 64 63 62 61 61 64 64 65 65 66 67 67 68 69 70 70 71 72 72 72 73 72 72 73 73 73 73 73 74 74 74 74 73 73 72 73 73 72 72 72 73 73 74 74 74 73 72 73 73 72 72 73 74 74 74 74 74 75 75 74 75 75 74 74 73 73
21 17 17 17 23 23 23 28 22 26 28 36 38 37 42 47 57 57 56 57 58 59 60 61 60 61 61 61 61 61 62 63 63 62 62 63 64 64 65 64 64 66 69 69 69 69 70 70 71 72 72 72 72 72 72 73 73 72 73 73 73 74 74 73 73 72 72 72 72 72 72 72 74 73 73 73 72 72 73 72 72 73 73 73 73 74 75 74 75 75 75 74 73 74 74 74 75
25 19 24 23 15 14 15 21 23 23 22 31 37 36 43 50 60 60 58 57 59 59 59 60 62 61 61 61 61 61 62 64 63 63 62 63 64 64 64 65 66 67 69 69 69 69 70 70 71 71 71 72 72 72 72 72 72 72 72 72 73 74 74 73 72 72 72 72 72 72 72 72 73 73 73 72 72 71 73 72 72 72 72 73 73 73 74 74 75 75 75 75 75 74 74 74 74